User: anonymous   Login
Location: Marcé
(47.5801°N, 0.3280°W)
Time: 00:29:33
(UTC+01:00)
Language:

Transit 2A - Orbit

View from above orbital plane
View from above orbital plane
View from above satellite
View from above satellite

Ground track
Ground track

The orbit data is extracted from the following two-line orbital elements,

1 00045U 60007A   21333.54370609  .00000015  00000-0  30618-4 0  9996
2 00045  66.6956  63.9151 0262188 289.2269  68.0632 14.33752682141821
Epoch (UTC): 29 November 2021 13:02:56
Eccentricity: 0.0262188
inclination: 66.6956°
perigee height: 591 km
apogee height: 967 km
right ascension of ascending node: 63.9151°
argument of perigee: 289.2269°
revolutions per day: 14.33752682
mean anomaly at epoch: 68.0632°
orbit number at epoch: 14182

The dashed part of the orbit path shows where the satellite is in the earth's shadow,  

DLR